SP9WPN-12 Weather Reports


time (UTC)temp
C
wind
direction
speed
KPH
gust
KPH
rain 1hr
cm
rain 24hr
cm
rain mn
cm
humidity
%
barometer
mb
20260507151601 20 0.0 0.0 0.00 0.00 0.00 52 1010.9
20260507150604 21 0.0 0.0 0.00 0.00 0.00 52 1010.8
20260507145607 22 0.0 0.0 0.00 0.00 0.00 45 1010.5
20260507144609 22 0.0 0.0 0.00 0.00 0.00 44 1010.3
20260507143612 22 0.0 0.0 0.00 0.00 0.00 43 1010.3
20260507142615 23 0.0 0.0 0.00 0.00 0.00 43 1010.2
20260507141617 23 0.0 0.0 0.00 0.00 0.00 43 1010.3
20260507140619 23 0.0 0.0 0.00 0.00 0.00 42 1010.2
20260507135622 24 0.0 0.0 0.00 0.00 0.00 39 1010.2
20260507134624 23 0.0 0.0 0.00 0.00 0.00 41 1010.4
20260507133626 23 0.0 0.0 0.00 0.00 0.00 42 1010.6
20260507132628 21 0.0 0.0 0.00 0.00 0.00 54 1010.7
20260507131630 21 0.0 0.0 0.00 0.00 0.00 57 1010.8
20260507130632 21 0.0 0.0 0.00 0.00 0.00 57 1010.9
20260507125633 21 0.0 0.0 0.00 0.00 0.00 55 1010.9
20260507124636 21 0.0 0.0 0.00 0.00 0.00 54 1011.0
20260507123639 21 0.0 0.0 0.00 0.00 0.00 54 1011.1
20260507122642 21 0.0 0.0 0.00 0.00 0.00 54 1011.0
20260507121644 23 0.0 0.0 0.00 0.00 0.00 51 1010.8
20260507120645 22 0.0 0.0 0.00 0.00 0.00 54 1011.0
20260507115647 22 0.0 0.0 0.00 0.00 0.00 54 1011.1
20260507114650 21 0.0 0.0 0.00 0.00 0.00 56 1011.3
20260507113652 20 0.0 0.0 0.00 0.00 0.00 60 1011.5
20260507112655 20 0.0 0.0 0.00 0.00 0.00 64 1011.6
20260507111657 20 0.0 0.0 0.00 0.00 0.00 59 1011.4
20260507110700 21 0.0 0.0 0.00 0.00 0.00 54 1011.2
20260507105702 20 0.0 0.0 0.00 0.00 0.00 56 1011.2
20260507104705 21 0.0 0.0 0.00 0.00 0.00 58 1011.2
20260507102709 21 0.0 0.0 0.00 0.00 0.00 58 1011.1
20260507101711 20 0.0 0.0 0.00 0.00 0.00 60 1011.3
20260507100713 21 0.0 0.0 0.00 0.00 0.00 59 1011.3
20260507095715 20 0.0 0.0 0.00 0.00 0.00 60 1011.3
20260507094717 20 0.0 0.0 0.00 0.00 0.00 60 1011.1
20260507093720 21 0.0 0.0 0.00 0.00 0.00 60 1011.1
20260507092722 21 0.0 0.0 0.00 0.00 0.00 59 1011.1
20260507091724 20 0.0 0.0 0.00 0.00 0.00 61 1011.0
20260507090727 20 0.0 0.0 0.00 0.00 0.00 64 1010.9
20260507085730 20 0.0 0.0 0.00 0.00 0.00 62 1010.7
20260507084732 21 0.0 0.0 0.00 0.00 0.00 62 1010.6
20260507083734 18 0.0 0.0 0.00 0.00 0.00 68 1010.9
20260507082737 18 0.0 0.0 0.00 0.00 0.00 68 1010.7
20260507081738 18 0.0 0.0 0.00 0.00 0.00 70 1010.6
20260507080740 18 0.0 0.0 0.00 0.00 0.00 70 1010.6
20260507075743 18 0.0 0.0 0.00 0.00 0.00 69 1010.5
20260507074745 20 0.0 0.0 0.00 0.00 0.00 66 1010.2
20260507073747 18 0.0 0.0 0.00 0.00 0.00 70 1010.2
20260507072749 18 0.0 0.0 0.00 0.00 0.00 72 1010.0
20260507071752 18 0.0 0.0 0.00 0.00 0.00 72 1010.1
20260507070754 17 0.0 0.0 0.00 0.00 0.00 73 1010.1
20260507065756 18 0.0 0.0 0.00 0.00 0.00 70 1009.8
20260507064758 17 0.0 0.0 0.00 0.00 0.00 72 1009.8
20260507063759 17 0.0 0.0 0.00 0.00 0.00 73 1009.8
20260507062801 17 0.0 0.0 0.00 0.00 0.00 73 1009.8
20260507061803 17 0.0 0.0 0.00 0.00 0.00 73 1009.7
20260507060805 16 0.0 0.0 0.00 0.00 0.00 75 1009.8
20260507055807 16 0.0 0.0 0.00 0.00 0.00 77 1009.7
20260507054810 15 0.0 0.0 0.00 0.00 0.00 79 1009.7
20260507053812 15 0.0 0.0 0.00 0.00 0.00 80 1009.6
20260507052815 15 0.0 0.0 0.00 0.00 0.00 80 1009.6
20260507051818 15 0.0 0.0 0.00 0.00 0.00 79 1009.5
20260507050821 15 0.0 0.0 0.00 0.00 0.00 79 1009.4
20260507045824 15 0.0 0.0 0.00 0.00 0.00 79 1009.2
20260507043828 15 0.0 0.0 0.00 0.00 0.00 78 1009.1
20260507042829 15 0.0 0.0 0.00 0.00 0.00 77 1009.0
20260507041832 15 0.0 0.0 0.00 0.00 0.00 78 1008.8
20260507040834 15 0.0 0.0 0.00 0.00 0.00 77 1008.7
20260507035835 15 0.0 0.0 0.00 0.00 0.00 77 1008.6
20260507034838 15 0.0 0.0 0.00 0.00 0.00 76 1008.5
20260507033840 15 0.0 0.0 0.00 0.00 0.00 76 1008.4
20260507032843 15 0.0 0.0 0.00 0.00 0.00 77 1008.3
20260507031845 15 0.0 0.0 0.00 0.00 0.00 76 1008.3
20260507030847 15 0.0 0.0 0.00 0.00 0.00 77 1008.1
20260507025850 15 0.0 0.0 0.00 0.00 0.00 76 1008.0
20260507024853 15 0.0 0.0 0.00 0.00 0.00 76 1007.9
20260507023854 15 0.0 0.0 0.00 0.00 0.00 78 1008.1
20260507022857 14 0.0 0.0 0.00 0.00 0.00 81 1008.1
20260507021859 14 0.0 0.0 0.00 0.00 0.00 79 1008.0
20260507020855 14 0.0 0.0 0.00 0.00 0.00 81 1008.1
20260507015858 13 0.0 0.0 0.00 0.00 0.00 83 1008.1
20260507014900 13 0.0 0.0 0.00 0.00 0.00 83 1008.1
20260507013902 13 0.0 0.0 0.00 0.00 0.00 84 1008.0
20260507012904 13 0.0 0.0 0.00 0.00 0.00 81 1007.8
20260507011906 13 0.0 0.0 0.00 0.00 0.00 80 1007.9
20260507010908 13 0.0 0.0 0.00 0.00 0.00 82 1008.0
20260507005911 13 0.0 0.0 0.00 0.00 0.00 81 1007.9
20260507004914 13 0.0 0.0 0.00 0.00 0.00 80 1007.7
20260507003916 14 0.0 0.0 0.00 0.00 0.00 78 1007.7
20260507002918 14 0.0 0.0 0.00 0.00 0.00 78 1007.7
20260507001920 14 0.0 0.0 0.00 0.00 0.00 77 1007.6
20260507000922 15 0.0 0.0 0.00 0.00 0.00 75 1007.5
20260506235924 15 0.0 0.0 0.00 0.00 0.00 73 1007.5
20260506234927 15 0.0 0.0 0.00 0.00 0.00 72 1007.5
20260506233929 16 0.0 0.0 0.00 0.00 0.00 69 1007.5
20260506232931 16 0.0 0.0 0.00 0.00 0.00 67 1007.3
20260506231933 17 0.0 0.0 0.00 0.00 0.00 66 1007.3
20260506230937 17 0.0 0.0 0.00 0.00 0.00 66 1007.3
20260506225938 17 0.0 0.0 0.00 0.00 0.00 64 1007.3
20260506224941 17 0.0 0.0 0.00 0.00 0.00 65 1007.2
20260506223943 16 0.0 0.0 0.00 0.00 0.00 67 1007.2
20260506222946 16 0.0 0.0 0.00 0.00 0.00 69 1007.2
20260506221947 16 0.0 0.0 0.00 0.00 0.00 67 1007.1
20260506220951 16 0.0 0.0 0.00 0.00 0.00 65 1007.1
20260506215953 17 0.0 0.0 0.00 0.00 0.00 63 1006.9
20260506214955 17 0.0 0.0 0.00 0.00 0.00 62 1007.0
20260506213958 18 0.0 0.0 0.00 0.00 0.00 60 1006.9
20260506213001 18 0.0 0.0 0.00 0.00 0.00 59 1007.0
20260506212002 18 0.0 0.0 0.00 0.00 0.00 58 1006.9
20260506211004 18 0.0 0.0 0.00 0.00 0.00 58 1006.9
20260506210006 18 0.0 0.0 0.00 0.00 0.00 57 1006.8
20260506205009 18 0.0 0.0 0.00 0.00 0.00 57 1006.7
20260506204011 18 0.0 0.0 0.00 0.00 0.00 58 1006.6
20260506203014 18 0.0 0.0 0.00 0.00 0.00 60 1006.7
20260506202017 18 0.0 0.0 0.00 0.00 0.00 61 1006.6
20260506201018 18 0.0 0.0 0.00 0.00 0.00 60 1006.6
20260506200021 18 0.0 0.0 0.00 0.00 0.00 61 1006.6
20260506195024 18 0.0 0.0 0.00 0.00 0.00 61 1006.6
20260506194026 18 0.0 0.0 0.00 0.00 0.00 60 1006.6
20260506193029 19 0.0 0.0 0.00 0.00 0.00 56 1006.3
20260506192031 19 0.0 0.0 0.00 0.00 0.00 55 1006.3
20260506191033 20 0.0 0.0 0.00 0.00 0.00 53 1006.2
20260506190036 20 0.0 0.0 0.00 0.00 0.00 52 1006.0
20260506185039 20 0.0 0.0 0.00 0.00 0.00 51 1005.9
20260506184041 20 0.0 0.0 0.00 0.00 0.00 51 1005.8
20260506183043 21 0.0 0.0 0.00 0.00 0.00 51 1005.7
20260506182046 21 0.0 0.0 0.00 0.00 0.00 50 1005.5
20260506181047 21 0.0 0.0 0.00 0.00 0.00 50 1005.5
20260506180049 21 0.0 0.0 0.00 0.00 0.00 49 1005.4
20260506175052 22 0.0 0.0 0.00 0.00 0.00 48 1005.4
20260506174055 22 0.0 0.0 0.00 0.00 0.00 46 1005.2
20260506173058 22 0.0 0.0 0.00 0.00 0.00 45 1005.2
20260506172100 22 0.0 0.0 0.00 0.00 0.00 45 1005.2
20260506171102 23 0.0 0.0 0.00 0.00 0.00 45 1005.3
20260506170104 23 0.0 0.0 0.00 0.00 0.00 45 1005.2
20260506165107 23 0.0 0.0 0.00 0.00 0.00 45 1005.2
20260506164109 23 0.0 0.0 0.00 0.00 0.00 44 1005.2
20260506163111 23 0.0 0.0 0.00 0.00 0.00 44 1005.4
20260506162113 23 0.0 0.0 0.00 0.00 0.00 43 1005.5
20260506161115 23 0.0 0.0 0.00 0.00 0.00 42 1005.5
20260506160117 24 0.0 0.0 0.00 0.00 0.00 40 1005.4
20260506155120 24 0.0 0.0 0.00 0.00 0.00 40 1005.4
20260506154122 25 0.0 0.0 0.00 0.00 0.00 39 1005.4
20260506153126 25 0.0 0.0 0.00 0.00 0.00 38 1005.5
20260506152128 25 0.0 0.0 0.00 0.00 0.00 38 1005.5